Location: ?????????
(38.5999°N, 22.7695°E)
Time: 17:56:14
(UTC+00:00)

Cosmos 2082 Rocket - Pass Details

Date: 23 May 2024
Orbit: 832 x 853 km, 71.0° (Epoch: 23 June)

Event Time Altitude Azimuth Distance (km) Brightness Sun altitude
Exits shadow 00:06:46 28° 285° (WNW) 1,539 3.4 -26.2°
Maximum altitude 00:07:42 30° 302° (WNW) 1,494 3.5 -26.1°
Drops below altitude 10° 00:12:40 10° 2° (N) 2,489 5.5 -25.7°
Sets 00:15:27 0° 14° (NNE) 3,427 6.6 -25.4°
